"Sample Date","Sample Time","Sensor Name","Sample Value","Units","Flow Rate","Sample Interval","Sample Volume","Laser Status","Number Channels","Micron Size 0","Counts/Channel 0","Micron Size 1","Counts/Channel 1","Micron Size 2","Counts/Channel 2","Micron Size 3","Counts/Channel 3","Micron Size 4","Counts/Channel 4","Micron Size 5","Counts/Channel 5","Micron Size 6","Counts/Channel 6","Micron Size 7","Counts/Channel 7","Micron Size 8","Counts/Channel 8","Micron Size 9","Counts/Channel 9","Micron Size 10","Counts/Channel 10","Micron Size 11","Counts/Channel 11","Micron Size 12","Counts/Channel 12","Micron Size 13","Counts/Channel 13","Micron Size 14","Counts/Channel 14","Micron Size 15","Counts/Channel 15","Micron Size 16","Counts/Channel 16","Micron Size 17","Counts/Channel 17","Micron Size 18","Counts/Channel 18","Micron Size 19","Counts/Channel 19","Micron Size 20","Counts/Channel 20","Micron Size 21","Counts/Channel 21","Micron Size 22","Counts/Channel 22","Micron Size 23","Counts/Channel 23","Micron Size 24","Counts/Channel 24","Micron Size 25","Counts/Channel 25","Micron Size 26","Counts/Channel 26","Micron Size 27","Counts/Channel 27","Micron Size 28","Counts/Channel 28","Micron Size 29","Counts/Channel 29","Micron Size 30","Counts/Channel 30","Micron Size 31","Counts/Channel 31"
"07/06/06","07:00:03","AMMA06",44635.000,"cc",28246.783,6.00,2824.679,1,6,0.100,22359.000,0.200,18556.000,0.300,2707.000,0.500,639.000,1.000,374.000,5.000,0
"07/06/06","07:00:09","AMMA06",45727.000,"cc",28348.514,6.00,2834.852,1,6,0.100,22820.000,0.200,18732.000,0.300,2948.000,0.500,802.000,1.000,425.000,5.000,0
"07/06/06","07:00:15","AMMA06",45499.000,"cc",28333.574,6.00,2833.358,1,6,0.100,22659.000,0.200,18870.000,0.300,2850.000,0.500,712.000,1.000,408.000,5.000,0
"07/06/06","07:00:21","AMMA06",45946.000,"cc",28322.789,6.00,2832.279,1,6,0.100,22965.000,0.200,18838.000,0.300,3006.000,0.500,707.000,1.000,430.000,5.000,0
"07/06/06","07:00:27","AMMA06",45882.000,"cc",28340.838,6.00,2834.084,1,6,0.100,22844.000,0.200,18866.000,0.300,3037.000,0.500,716.000,1.000,419.000,5.000,0
"07/06/06","07:00:33","AMMA06",44519.000,"cc",28273.090,6.00,2827.309,1,6,0.100,22133.000,0.200,18754.000,0.300,2695.000,0.500,606.000,1.000,331.000,5.000,0
"07/06/06","07:00:39","AMMA06",44038.000,"cc",28362.963,6.00,2836.296,1,6,0.100,22159.000,0.200,18287.000,0.300,2690.000,0.500,571.000,1.000,331.000,5.000,0
"07/06/06","07:00:45","AMMA06",44902.000,"cc",28365.088,6.00,2836.509,1,6,0.100,22546.000,0.200,18499.000,0.300,2787.000,0.500,659.000,1.000,411.000,5.000,0
"07/06/06","07:00:51","AMMA06",44614.000,"cc",28297.174,6.00,2829.718,1,6,0.100,22425.000,0.200,18326.000,0.300,2767.000,0.500,677.000,1.000,419.000,5.000,0
"07/06/06","07:00:57","AMMA06",45745.000,"cc",28337.440,6.00,2833.744,1,6,0.100,22780.000,0.200,18439.000,0.300,3163.000,0.500,868.000,1.000,495.000,5.000,0
"07/06/06","07:01:03","AMMA06",43582.000,"cc",28304.701,6.00,2830.470,1,6,0.100,21893.000,0.200,18026.000,0.300,2696.000,0.500,588.000,1.000,379.000,5.000,0
"07/06/06","07:01:09","AMMA06",43163.000,"cc",28299.516,6.00,2829.952,1,6,0.100,21899.000,0.200,17810.000,0.300,2611.000,0.500,526.000,1.000,317.000,5.000,0
"07/06/06","07:01:15","AMMA06",43258.000,"cc",28347.916,6.00,2834.792,1,6,0.100,21816.000,0.200,18050.000,0.300,2594.000,0.500,496.000,1.000,302.000,5.000,0
"07/06/06","07:01:21","AMMA06",43336.000,"cc",28302.273,6.00,2830.228,1,6,0.100,21929.000,0.200,17909.000,0.300,2600.000,0.500,536.000,1.000,362.000,5.000,0
"07/06/06","07:01:27","AMMA06",43296.000,"cc",28342.869,6.00,2834.287,1,6,0.100,21748.000,0.200,18106.000,0.300,2563.000,0.500,575.000,1.000,304.000,5.000,0
"07/06/06","07:01:33","AMMA06",43726.000,"cc",28277.549,6.00,2827.755,1,6,0.100,22060.000,0.200,18177.000,0.300,2609.000,0.500,553.000,1.000,327.000,5.000,0
"07/06/06","07:01:39","AMMA06",44468.000,"cc",28280.381,6.00,2828.038,1,6,0.100,22531.000,0.200,18236.000,0.300,2736.000,0.500,585.000,1.000,380.000,5.000,0
"07/06/06","07:01:45","AMMA06",43688.000,"cc",28296.596,6.00,2829.660,1,6,0.100,22187.000,0.200,18098.000,0.300,2528.000,0.500,540.000,1.000,335.000,5.000,0
"07/06/06","07:01:51","AMMA06",43889.000,"cc",28353.627,6.00,2835.363,1,6,0.100,22108.000,0.200,18300.000,0.300,2591.000,0.500,527.000,1.000,363.000,5.000,0
"07/06/06","07:01:57","AMMA06",44186.000,"cc",28346.264,6.00,2834.627,1,6,0.100,22412.000,0.200,18120.000,0.300,2663.000,0.500,626.000,1.000,365.000,5.000,0
"07/06/06","07:02:03","AMMA06",44198.000,"cc",28330.215,6.00,2833.022,1,6,0.100,22220.000,0.200,18221.000,0.300,2758.000,0.500,617.000,1.000,382.000,5.000,0
"07/06/06","07:02:09","AMMA06",44231.000,"cc",28312.742,6.00,2831.274,1,6,0.100,22447.000,0.200,18239.000,0.300,2640.000,0.500,564.000,1.000,341.000,5.000,0
"07/06/06","07:02:15","AMMA06",43787.000,"cc",28334.990,6.00,2833.499,1,6,0.100,22228.000,0.200,18037.000,0.300,2609.000,0.500,568.000,1.000,345.000,5.000,0
"07/06/06","07:02:21","AMMA06",43805.000,"cc",28332.797,6.00,2833.280,1,6,0.100,22407.000,0.200,17983.000,0.300,2505.000,0.500,585.000,1.000,325.000,5.000,0
"07/06/06","07:02:27","AMMA06",44310.000,"cc",28297.918,6.00,2829.792,1,6,0.100,22618.000,0.200,18259.000,0.300,2589.000,0.500,517.000,1.000,327.000,5.000,0
"07/06/06","07:02:33","AMMA06",44611.000,"cc",28325.125,6.00,2832.513,1,6,0.100,22305.000,0.200,18405.000,0.300,2817.000,0.500,694.000,1.000,390.000,5.000,0
"07/06/06","07:02:39","AMMA06",44929.000,"cc",28305.352,6.00,2830.535,1,6,0.100,22770.000,0.200,18346.000,0.300,2763.000,0.500,672.000,1.000,378.000,5.000,0
"07/06/06","07:02:45","AMMA06",44032.000,"cc",28262.338,6.00,2826.234,1,6,0.100,22456.000,0.200,18068.000,0.300,2569.000,0.500,597.000,1.000,342.000,5.000,0
"07/06/06","07:02:51","AMMA06",43153.000,"cc",28296.815,6.00,2829.682,1,6,0.100,21899.000,0.200,17834.000,0.300,2537.000,0.500,557.000,1.000,326.000,5.000,0
"07/06/06","07:02:57","AMMA06",43267.000,"cc",28328.158,6.00,2832.816,1,6,0.100,22174.000,0.200,17653.000,0.300,2588.000,0.500,511.000,1.000,341.000,5.000,0
"07/06/06","07:03:03","AMMA06",43466.000,"cc",28333.363,6.00,2833.336,1,6,0.100,22531.000,0.200,17524.000,0.300,2534.000,0.500,548.000,1.000,329.000,5.000,0
"07/06/06","07:03:09","AMMA06",43549.000,"cc",28331.307,6.00,2833.131,1,6,0.100,22287.000,0.200,17655.000,0.300,2637.000,0.500,631.000,1.000,339.000,5.000,0
"07/06/06","07:03:15","AMMA06",44182.000,"cc",28348.727,6.00,2834.873,1,6,0.100,22614.000,0.200,17946.000,0.300,2661.000,0.500,606.000,1.000,355.000,5.000,0
"07/06/06","07:03:21","AMMA06",44961.000,"cc",28268.252,6.00,2826.825,1,6,0.100,22938.000,0.200,18066.000,0.300,2836.000,0.500,725.000,1.000,396.000,5.000,0
"07/06/06","07:03:27","AMMA06",43219.000,"cc",28328.279,6.00,2832.828,1,6,0.100,22242.000,0.200,17736.000,0.300,2413.000,0.500,530.000,1.000,298.000,5.000,0
"07/06/06","07:03:33","AMMA06",43873.000,"cc",28325.723,6.00,2832.573,1,6,0.100,22612.000,0.200,17845.000,0.300,2484.000,0.500,606.000,1.000,326.000,5.000,0
"07/06/06","07:03:39","AMMA06",44539.000,"cc",28272.344,6.00,2827.235,1,6,0.100,22880.000,0.200,18000.000,0.300,2663.000,0.500,628.000,1.000,368.000,5.000,0
"07/06/06","07:03:45","AMMA06",44191.000,"cc",28353.170,6.00,2835.317,1,6,0.100,22553.000,0.200,18066.000,0.300,2580.000,0.500,632.000,1.000,360.000,5.000,0
"07/06/06","07:03:51","AMMA06",43934.000,"cc",28323.945,6.00,2832.395,1,6,0.100,22834.000,0.200,17789.000,0.300,2460.000,0.500,517.000,1.000,334.000,5.000,0
"07/06/06","07:03:57","AMMA06",44289.000,"cc",28273.783,6.00,2827.378,1,6,0.100,22948.000,0.200,17915.000,0.300,2547.000,0.500,549.000,1.000,330.000,5.000,0
"07/06/06","07:04:03","AMMA06",44338.000,"cc",28376.822,6.00,2837.682,1,6,0.100,22866.000,0.200,17953.000,0.300,2560.000,0.500,620.000,1.000,339.000,5.000,0
"07/06/06","07:04:09","AMMA06",44785.000,"cc",28343.529,6.00,2834.353,1,6,0.100,23076.000,0.200,18131.000,0.300,2561.000,0.500,624.000,1.000,393.000,5.000,0
"07/06/06","07:04:15","AMMA06",44644.000,"cc",28313.170,6.00,2831.317,1,6,0.100,22907.000,0.200,18239.000,0.300,2613.000,0.500,531.000,1.000,354.000,5.000,0
"07/06/06","07:04:21","AMMA06",44344.000,"cc",28265.172,6.00,2826.517,1,6,0.100,23093.000,0.200,17998.000,0.300,2417.000,0.500,507.000,1.000,329.000,5.000,0
"07/06/06","07:04:27","AMMA06",44512.000,"cc",28322.793,6.00,2832.280,1,6,0.100,23073.000,0.200,18066.000,0.300,2461.000,0.500,556.000,1.000,355.000,5.000,1.000
"07/06/06","07:04:33","AMMA06",44366.000,"cc",28360.565,6.00,2836.057,1,6,0.100,23071.000,0.200,17821.000,0.300,2481.000,0.500,631.000,1.000,362.000,5.000,0
"07/06/06","07:04:39","AMMA06",45172.000,"cc",28285.270,6.00,2828.527,1,6,0.100,23264.000,0.200,18098.000,0.300,2697.000,0.500,739.000,1.000,374.000,5.000,0
"07/06/06","07:04:45","AMMA06",44518.000,"cc",28305.201,6.00,2830.520,1,6,0.100,23104.000,0.200,18054.000,0.300,2411.000,0.500,592.000,1.000,357.000,5.000,0
"07/06/06","07:04:51","AMMA06",43872.000,"cc",28306.820,6.00,2830.682,1,6,0.100,22928.000,0.200,17600.000,0.300,2497.000,0.500,519.000,1.000,328.000,5.000,0
"07/06/06","07:04:57","AMMA06",43893.000,"cc",28362.918,6.00,2836.292,1,6,0.100,22869.000,0.200,17754.000,0.300,2441.000,0.500,507.000,1.000,322.000,5.000,0
"07/06/06","07:05:03","AMMA06",44463.000,"cc",28340.252,6.00,2834.025,1,6,0.100,22999.000,0.200,17946.000,0.300,2563.000,0.500,584.000,1.000,371.000,5.000,0
"07/06/06","07:05:09","AMMA06",48348.000,"cc",28323.336,6.00,2832.334,1,6,0.100,24789.000,0.200,18768.000,0.300,3288.000,0.500,988.000,1.000,515.000,5.000,0
"07/06/06","07:05:15","AMMA06",49360.000,"cc",28285.732,6.00,2828.574,1,6,0.100,25313.000,0.200,18989.000,0.300,3397.000,0.500,1105.000,1.000,556.000,5.000,0
"07/06/06","07:05:21","AMMA06",45541.000,"cc",28311.637,6.00,2831.164,1,6,0.100,23482.000,0.200,17938.000,0.300,2903.000,0.500,791.000,1.000,427.000,5.000,0
"07/06/06","07:05:27","AMMA06",44872.000,"cc",28295.268,6.00,2829.527,1,6,0.100,23145.000,0.200,18069.000,0.300,2632.000,0.500,644.000,1.000,382.000,5.000,0
"07/06/06","07:05:33","AMMA06",44415.000,"cc",28349.756,6.00,2834.976,1,6,0.100,22706.000,0.200,18126.000,0.300,2610.000,0.500,605.000,1.000,368.000,5.000,0
"07/06/06","07:05:39","AMMA06",45313.000,"cc",28317.879,6.00,2831.788,1,6,0.100,23353.000,0.200,18130.000,0.300,2820.000,0.500,622.000,1.000,388.000,5.000,0
"07/06/06","07:05:45","AMMA06",45780.000,"cc",28301.158,6.00,2830.116,1,6,0.100,23237.000,0.200,18493.000,0.300,2891.000,0.500,741.000,1.000,418.000,5.000,0
"07/06/06","07:05:51","AMMA06",44548.000,"cc",28277.361,6.00,2827.736,1,6,0.100,22847.000,0.200,18072.000,0.300,2618.000,0.500,596.000,1.000,415.000,5.000,0
"07/06/06","07:05:57","AMMA06",46086.000,"cc",28364.617,6.00,2836.462,1,6,0.100,23514.000,0.200,18519.000,0.300,2869.000,0.500,754.000,1.000,430.000,5.000,0
"07/06/06","07:06:03","AMMA06",43964.000,"cc",28299.813,6.00,2829.981,1,6,0.100,22666.000,0.200,17593.000,0.300,2772.000,0.500,577.000,1.000,356.000,5.000,0
"07/06/06","07:06:09","AMMA06",49482.000,"cc",28275.035,6.00,2827.504,1,6,0.100,24822.000,0.200,18905.000,0.300,3728.000,0.500,1413.000,1.000,614.000,5.000,0
"07/06/06","07:06:15","AMMA06",44416.000,"cc",28287.539,6.00,2828.754,1,6,0.100,22543.000,0.200,17919.000,0.300,2822.000,0.500,718.000,1.000,414.000,5.000,0
"07/06/06","07:06:21","AMMA06",44181.000,"cc",28350.195,6.00,2835.020,1,6,0.100,22591.000,0.200,17816.000,0.300,2721.000,0.500,670.000,1.000,383.000,5.000,0
"07/06/06","07:06:27","AMMA06",45313.000,"cc",28372.889,6.00,2837.289,1,6,0.100,22975.000,0.200,18152.000,0.300,2933.000,0.500,829.000,1.000,424.000,5.000,0
"07/06/06","07:06:33","AMMA06",44718.000,"cc",28287.596,6.00,2828.760,1,6,0.100,22784.000,0.200,18124.000,0.300,2720.000,0.500,694.000,1.000,396.000,5.000,0
"07/06/06","07:06:39","AMMA06",43959.000,"cc",28333.516,6.00,2833.352,1,6,0.100,22419.000,0.200,17944.000,0.300,2646.000,0.500,623.000,1.000,327.000,5.000,0
"07/06/06","07:06:45","AMMA06",43873.000,"cc",28323.270,6.00,2832.327,1,6,0.100,22431.000,0.200,17871.000,0.300,2607.000,0.500,589.000,1.000,375.000,5.000,0
"07/06/06","07:06:51","AMMA06",42744.000,"cc",28298.922,6.00,2829.892,1,6,0.100,21897.000,0.200,17510.000,0.300,2494.000,0.500,517.000,1.000,326.000,5.000,0
"07/06/06","07:06:57","AMMA06",43200.000,"cc",28324.625,6.00,2832.463,1,6,0.100,22125.000,0.200,17486.000,0.300,2633.000,0.500,614.000,1.000,342.000,5.000,0
"07/06/06","07:07:03","AMMA06",43027.000,"cc",28277.930,6.00,2827.793,1,6,0.100,21994.000,0.200,17559.000,0.300,2559.000,0.500,565.000,1.000,350.000,5.000,0
"07/06/06","07:07:09","AMMA06",42582.000,"cc",28285.133,6.00,2828.513,1,6,0.100,21862.000,0.200,17303.000,0.300,2547.000,0.500,557.000,1.000,313.000,5.000,0
"07/06/06","07:07:15","AMMA06",42467.000,"cc",28376.215,6.00,2837.622,1,6,0.100,21668.000,0.200,17545.000,0.300,2439.000,0.500,513.000,1.000,302.000,5.000,0
"07/06/06","07:07:21","AMMA06",42554.000,"cc",28288.350,6.00,2828.835,1,6,0.100,21791.000,0.200,17320.000,0.300,2591.000,0.500,524.000,1.000,328.000,5.000,0
"07/06/06","07:07:27","AMMA06",42411.000,"cc",28378.057,6.00,2837.806,1,6,0.100,21598.000,0.200,17283.000,0.300,2623.000,0.500,551.000,1.000,356.000,5.000,0
"07/06/06","07:07:33","AMMA06",41832.000,"cc",28318.324,6.00,2831.833,1,6,0.100,21534.000,0.200,17015.000,0.300,2392.000,0.500,564.000,1.000,327.000,5.000,0
"07/06/06","07:07:39","AMMA06",42270.000,"cc",28279.209,6.00,2827.921,1,6,0.100,21671.000,0.200,17273.000,0.300,2497.000,0.500,518.000,1.000,311.000,5.000,0
"07/06/06","07:07:45","AMMA06",42134.000,"cc",28302.490,6.00,2830.249,1,6,0.100,21809.000,0.200,17053.000,0.300,2437.000,0.500,518.000,1.000,317.000,5.000,0
"07/06/06","07:07:51","AMMA06",42464.000,"cc",28322.315,6.00,2832.232,1,6,0.100,22101.000,0.200,17184.000,0.300,2332.000,0.500,540.000,1.000,307.000,5.000,0
"07/06/06","07:07:57","AMMA06",42915.000,"cc",28357.107,6.00,2835.711,1,6,0.100,22017.000,0.200,17408.000,0.300,2545.000,0.500,598.000,1.000,347.000,5.000,0
"07/06/06","07:08:03","AMMA06",42739.000,"cc",28318.170,6.00,2831.817,1,6,0.100,21939.000,0.200,17461.000,0.300,2482.000,0.500,532.000,1.000,324.000,5.000,1.000
"07/06/06","07:08:09","AMMA06",43245.000,"cc",28284.022,6.00,2828.402,1,6,0.100,22153.000,0.200,17520.000,0.300,2620.000,0.500,596.000,1.000,356.000,5.000,0
"07/06/06","07:08:15","AMMA06",42742.000,"cc",28326.182,6.00,2832.618,1,6,0.100,21923.000,0.200,17374.000,0.300,2534.000,0.500,599.000,1.000,312.000,5.000,0
"07/06/06","07:08:21","AMMA06",43061.000,"cc",28305.320,6.00,2830.532,1,6,0.100,22241.000,0.200,17361.000,0.300,2536.000,0.500,578.000,1.000,345.000,5.000,0
"07/06/06","07:08:27","AMMA06",45028.000,"cc",28284.775,6.00,2828.478,1,6,0.100,22975.000,0.200,18060.000,0.300,2841.000,0.500,728.000,1.000,423.000,5.000,1.000
"07/06/06","07:08:33","AMMA06",47312.000,"cc",28301.152,6.00,2830.116,1,6,0.100,24074.000,0.200,18333.000,0.300,3348.000,0.500,1035.000,1.000,522.000,5.000,0
"07/06/06","07:08:39","AMMA06",44717.000,"cc",28338.979,6.00,2833.898,1,6,0.100,22863.000,0.200,17811.000,0.300,2887.000,0.500,782.000,1.000,374.000,5.000,0
"07/06/06","07:08:45","AMMA06",44903.000,"cc",28381.793,6.00,2838.179,1,6,0.100,22957.000,0.200,17671.000,0.300,3050.000,0.500,783.000,1.000,442.000,5.000,0
"07/06/06","07:08:51","AMMA06",43270.000,"cc",28331.127,6.00,2833.113,1,6,0.100,22269.000,0.200,17519.000,0.300,2534.000,0.500,612.000,1.000,336.000,5.000,0
"07/06/06","07:08:57","AMMA06",44623.000,"cc",28319.518,6.00,2831.952,1,6,0.100,22685.000,0.200,17829.000,0.300,2879.000,0.500,794.000,1.000,436.000,5.000,0
"07/06/06","07:09:03","AMMA06",43197.000,"cc",28301.637,6.00,2830.164,1,6,0.100,21997.000,0.200,17573.000,0.300,2663.000,0.500,613.000,1.000,351.000,5.000,0
"07/06/06","07:09:09","AMMA06",42788.000,"cc",28286.764,6.00,2828.677,1,6,0.100,22053.000,0.200,17339.000,0.300,2524.000,0.500,556.000,1.000,316.000,5.000,0
"07/06/06","07:09:15","AMMA06",43227.000,"cc",28393.584,6.00,2839.359,1,6,0.100,21980.000,0.200,17581.000,0.300,2718.000,0.500,609.000,1.000,339.000,5.000,0
"07/06/06","07:09:21","AMMA06",43786.000,"cc",28304.459,6.00,2830.446,1,6,0.100,22356.000,0.200,17512.000,0.300,2815.000,0.500,715.000,1.000,388.000,5.000,0
"07/06/06","07:09:27","AMMA06",44070.000,"cc",28240.297,6.00,2824.030,1,6,0.100,22353.000,0.200,17758.000,0.300,2833.000,0.500,734.000,1.000,392.000,5.000,0
"07/06/06","07:09:33","AMMA06",43371.000,"cc",28321.914,6.00,2832.192,1,6,0.100,22102.000,0.200,17461.000,0.300,2708.000,0.500,729.000,1.000,371.000,5.000,0
"07/06/06","07:09:39","AMMA06",43568.000,"cc",28352.416,6.00,2835.242,1,6,0.100,22187.000,0.200,17553.000,0.300,2744.000,0.500,696.000,1.000,388.000,5.000,0
"07/06/06","07:09:45","AMMA06",43838.000,"cc",28312.758,6.00,2831.276,1,6,0.100,22262.000,0.200,17667.000,0.300,2809.000,0.500,708.000,1.000,392.000,5.000,0
"07/06/06","07:09:51","AMMA06",42887.000,"cc",28375.115,6.00,2837.512,1,6,0.100,21969.000,0.200,17350.000,0.300,2565.000,0.500,633.000,1.000,370.000,5.000,0
"07/06/06","07:09:57","AMMA06",42426.000,"cc",28337.475,6.00,2833.748,1,6,0.100,21926.000,0.200,17156.000,0.300,2494.000,0.500,538.000,1.000,312.000,5.000,0
"07/06/06","07:10:03","AMMA06",42864.000,"cc",28283.109,6.00,2828.311,1,6,0.100,22194.000,0.200,17135.000,0.300,2632.000,0.500,558.000,1.000,345.000,5.000,0
"07/06/06","07:10:09","AMMA06",45326.000,"cc",28283.412,6.00,2828.341,1,6,0.100,22959.000,0.200,17851.000,0.300,3179.000,0.500,917.000,1.000,420.000,5.000,0
"07/06/06","07:10:15","AMMA06",43440.000,"cc",28340.787,6.00,2834.079,1,6,0.100,22152.000,0.200,17530.000,0.300,2767.000,0.500,640.000,1.000,350.000,5.000,1.000
"07/06/06","07:10:21","AMMA06",43732.000,"cc",28297.215,6.00,2829.722,1,6,0.100,22319.000,0.200,17541.000,0.300,2785.000,0.500,687.000,1.000,399.000,5.000,1.000
"07/06/06","07:10:27","AMMA06",44296.000,"cc",28365.732,6.00,2836.574,1,6,0.100,22585.000,0.200,17585.000,0.300,2875.000,0.500,816.000,1.000,435.000,5.000,0
"07/06/06","07:10:33","AMMA06",44050.000,"cc",28308.691,6.00,2830.869,1,6,0.100,22491.000,0.200,17649.000,0.300,2793.000,0.500,743.000,1.000,374.000,5.000,0
"07/06/06","07:10:39","AMMA06",47675.000,"cc",28268.012,6.00,2826.801,1,6,0.100,23976.000,0.200,18431.000,0.300,3568.000,0.500,1141.000,1.000,559.000,5.000,0
"07/06/06","07:10:45","AMMA06",45747.000,"cc",28280.428,6.00,2828.043,1,6,0.100,23269.000,0.200,17984.000,0.300,3139.000,0.500,903.000,1.000,452.000,5.000,0
"07/06/06","07:10:51","AMMA06",45815.000,"cc",28360.289,6.00,2836.029,1,6,0.100,23231.000,0.200,18136.000,0.300,3118.000,0.500,889.000,1.000,441.000,5.000,0
"07/06/06","07:10:57","AMMA06",44407.000,"cc",28305.357,6.00,2830.536,1,6,0.100,22472.000,0.200,17889.000,0.300,2888.000,0.500,785.000,1.000,373.000,5.000,0
"07/06/06","07:11:03","AMMA06",44570.000,"cc",28403.787,6.00,2840.379,1,6,0.100,22555.000,0.200,17963.000,0.300,2919.000,0.500,726.000,1.000,407.000,5.000,0
"07/06/06","07:11:09","AMMA06",44538.000,"cc",28326.715,6.00,2832.672,1,6,0.100,22491.000,0.200,17935.000,0.300,2928.000,0.500,778.000,1.000,406.000,5.000,0
"07/06/06","07:11:15","AMMA06",43262.000,"cc",28283.984,6.00,2828.399,1,6,0.100,22102.000,0.200,17544.000,0.300,2723.000,0.500,558.000,1.000,335.000,5.000,0
"07/06/06","07:11:21","AMMA06",43325.000,"cc",28279.441,6.00,2827.944,1,6,0.100,21974.000,0.200,17696.000,0.300,2679.000,0.500,593.000,1.000,383.000,5.000,0
"07/06/06","07:11:27","AMMA06",43052.000,"cc",28345.523,6.00,2834.553,1,6,0.100,22085.000,0.200,17560.000,0.300,2537.000,0.500,556.000,1.000,314.000,5.000,0
"07/06/06","07:11:33","AMMA06",43584.000,"cc",28318.242,6.00,2831.825,1,6,0.100,22221.000,0.200,17665.000,0.300,2658.000,0.500,664.000,1.000,376.000,5.000,0
"07/06/06","07:11:39","AMMA06",44432.000,"cc",28248.426,6.00,2824.843,1,6,0.100,22541.000,0.200,17773.000,0.300,2919.000,0.500,786.000,1.000,413.000,5.000,0
"07/06/06","07:11:45","AMMA06",44134.000,"cc",28308.197,6.00,2830.820,1,6,0.100,22250.000,0.200,17944.000,0.300,2863.000,0.500,695.000,1.000,382.000,5.000,0
"07/06/06","07:11:51","AMMA06",44237.000,"cc",28335.465,6.00,2833.547,1,6,0.100,22403.000,0.200,17768.000,0.300,2928.000,0.500,728.000,1.000,410.000,5.000,0
"07/06/06","07:11:57","AMMA06",47060.000,"cc",28319.043,6.00,2831.905,1,6,0.100,23574.000,0.200,18456.000,0.300,3385.000,0.500,1076.000,1.000,569.000,5.000,0
"07/06/06","07:12:03","AMMA06",44708.000,"cc",28314.467,6.00,2831.447,1,6,0.100,22552.000,0.200,17730.000,0.300,3113.000,0.500,842.000,1.000,471.000,5.000,0
"07/06/06","07:12:09","AMMA06",44442.000,"cc",28354.773,6.00,2835.478,1,6,0.100,22417.000,0.200,17941.000,0.300,2892.000,0.500,775.000,1.000,417.000,5.000,0
"07/06/06","07:12:15","AMMA06",44035.000,"cc",28331.582,6.00,2833.158,1,6,0.100,22408.000,0.200,17830.000,0.300,2686.000,0.500,720.000,1.000,391.000,5.000,0
"07/06/06","07:12:21","AMMA06",43061.000,"cc",28311.852,6.00,2831.185,1,6,0.100,21907.000,0.200,17588.000,0.300,2652.000,0.500,591.000,1.000,323.000,5.000,0
"07/06/06","07:12:27","AMMA06",43404.000,"cc",28300.684,6.00,2830.069,1,6,0.100,22009.000,0.200,17543.000,0.300,2755.000,0.500,719.000,1.000,378.000,5.000,0
"07/06/06","07:12:33","AMMA06",45862.000,"cc",28294.801,6.00,2829.480,1,6,0.100,22715.000,0.200,18461.000,0.300,3260.000,0.500,940.000,1.000,486.000,5.000,0
"07/06/06","07:12:39","AMMA06",45629.000,"cc",28330.291,6.00,2833.029,1,6,0.100,22586.000,0.200,18289.000,0.300,3275.000,0.500,977.000,1.000,502.000,5.000,0
"07/06/06","07:12:45","AMMA06",44168.000,"cc",28289.070,6.00,2828.907,1,6,0.100,22257.000,0.200,17919.000,0.300,2917.000,0.500,708.000,1.000,367.000,5.000,0
"07/06/06","07:12:51","AMMA06",44322.000,"cc",28361.127,6.00,2836.113,1,6,0.100,22630.000,0.200,17801.000,0.300,2843.000,0.500,679.000,1.000,369.000,5.000,0
"07/06/06","07:12:57","AMMA06",44854.000,"cc",28320.789,6.00,2832.079,1,6,0.100,22675.000,0.200,17882.000,0.300,3034.000,0.500,815.000,1.000,447.000,5.000,1.000
"07/06/06","07:13:03","AMMA06",43224.000,"cc",28316.803,6.00,2831.680,1,6,0.100,22035.000,0.200,17475.000,0.300,2760.000,0.500,576.000,1.000,378.000,5.000,0
"07/06/06","07:13:09","AMMA06",43080.000,"cc",28334.057,6.00,2833.406,1,6,0.100,21905.000,0.200,17485.000,0.300,2694.000,0.500,654.000,1.000,342.000,5.000,0
"07/06/06","07:13:15","AMMA06",44709.000,"cc",28328.553,6.00,2832.856,1,6,0.100,22501.000,0.200,17714.000,0.300,3138.000,0.500,887.000,1.000,469.000,5.000,0
"07/06/06","07:13:21","AMMA06",43798.000,"cc",28285.484,6.00,2828.549,1,6,0.100,22047.000,0.200,17805.000,0.300,2844.000,0.500,701.000,1.000,401.000,5.000,0
"07/06/06","07:13:27","AMMA06",43628.000,"cc",28308.525,6.00,2830.853,1,6,0.100,22063.000,0.200,17643.000,0.300,2864.000,0.500,666.000,1.000,392.000,5.000,0
"07/06/06","07:13:33","AMMA06",43184.000,"cc",28299.449,6.00,2829.945,1,6,0.100,22229.000,0.200,17487.000,0.300,2547.000,0.500,586.000,1.000,335.000,5.000,0
"07/06/06","07:13:39","AMMA06",45820.000,"cc",28320.527,6.00,2832.053,1,6,0.100,23427.000,0.200,17884.000,0.300,3111.000,0.500,902.000,1.000,496.000,5.000,0
"07/06/06","07:13:45","AMMA06",45373.000,"cc",28339.107,6.00,2833.911,1,6,0.100,22987.000,0.200,18046.000,0.300,3070.000,0.500,828.000,1.000,442.000,5.000,0
"07/06/06","07:13:51","AMMA06",45592.000,"cc",28300.963,6.00,2830.096,1,6,0.100,23135.000,0.200,18208.000,0.300,3017.000,0.500,797.000,1.000,435.000,5.000,0
"07/06/06","07:13:57","AMMA06",43888.000,"cc",28305.436,6.00,2830.544,1,6,0.100,22636.000,0.200,17673.000,0.300,2628.000,0.500,612.000,1.000,339.000,5.000,0
"07/06/06","07:14:03","AMMA06",43868.000,"cc",28347.363,6.00,2834.737,1,6,0.100,22630.000,0.200,17719.000,0.300,2547.000,0.500,635.000,1.000,337.000,5.000,0
"07/06/06","07:14:09","AMMA06",43765.000,"cc",28324.820,6.00,2832.482,1,6,0.100,22444.000,0.200,17675.000,0.300,2710.000,0.500,592.000,1.000,344.000,5.000,0
"07/06/06","07:14:15","AMMA06",43823.000,"cc",28276.326,6.00,2827.633,1,6,0.100,22530.000,0.200,17748.000,0.300,2551.000,0.500,616.000,1.000,378.000,5.000,0